Regional Weather Roundup
Issued by NWS

Home | Current Version | Previous Version | Graphics & Text | Print | Product List | Glossary Off
Versions: 1 2 3 4 5 6 7 8 9 10 11 12 13 14 15 16 17 18 19 20 21 22 23 24 25 26 27 28 29 30 31 32 33 34 35 36 37 38 39 40 41 42 43 44 45 46 47 48 49 50

000
ASUS43 KMPX 030010
RWRMN
WEATHER ROUNDUP FOR MINNESOTA
NATIONAL WEATHER SERVICE TWIN CITIES/CHANHASSEN MN
700 PM CDT WED SEP 02 2015


NOTE: "FAIR" INDICATES FEW OR NO CLOUDS BELOW 12,000 FEET WITH NO
SIGNIFICANT WEATHER AND/OR OBSTRUCTIONS TO VISIBILITY. N/A MEANS
CURRENT SKY AND/OR WEATHER CONDITIONS ARE NOT AVAILABLE.

MNZ060>063-068>070-030100-
   Twin Cities Metro

CITY           SKY/WX    TMP DP  RH WIND       PRES   REMARKS
TWIN CITIES    PTCLDY    77  69  76 NE8       29.86F
6HR MIN TEMP:  73; 6HR MAX TEMP:  78;

ST PAUL        CLEAR     76  70  82 E8        29.87S
CRYSTAL        CLEAR     76  68  76 NE5       29.86S
BLAINE         PTCLDY    75  72  88 E8        29.88S
LAKEVILLE      CLEAR     75  72  88 NE6       29.86S
EDEN PRAIRIE   CLEAR     78  70  76 E8        29.85S
6HR MIN TEMP:  76; 6HR MAX TEMP:  80;

SOUTH ST PAUL  CLEAR     77  69  76 E7        29.86F
LAKE ELMO      FAIR      73  70  88 NE5       29.89S
$$
MNZ001>005-007-008-013>017-022>024-027-028-030100-
   Northwest Minnesota

CITY           SKY/WX    TMP DP  RH WIND       PRES   REMARKS
BEMIDJI        CLEAR     79  66  64 SE10      29.87S
HALLOCK        SUNNY     88  63  42 S12       29.77R
ROSEAU         CLEAR     82  68  61 SE8       29.83R
WARROAD        CLEAR     82  70  65 SE7       29.84R
THIEF RVR FALL CLEAR     82  63  51 SE10      29.82R
CROOKSTON      SUNNY     84  63  48 SE14      29.80R
FOSSTON        CLEAR     84  63  48 SE6       29.84S
DETROIT LAKES  PTCLDY    81  66  61 SE10G17   29.85S
MOORHEAD       SUNNY     84  66  54 SE9G16    29.80R
PARK RAPIDS    CLEAR     80  66  62 SE10      29.87S
MAHNOMEN       FAIR      81  66  61 SE8       29.83S
$$
MNZ006-009>011-018-025>026-030100-
   North Central Minnesota

CITY           SKY/WX    TMP DP  RH WIND       PRES   REMARKS
BAUDETTE       CLEAR     81  62  52 SE9       29.86S
FLAG ISLAND    CLEAR     79  68  69 SE12      29.83S
INTL FALLS     CLEAR     78  64  61 SE9       29.89S
6HR MIN TEMP:  78; 6HR MAX TEMP:  84;

WASKISH        CLEAR     79  66  65 E6        29.87S
BIG FORK       CLEAR     79  64  61 CALM      29.90S
LONGVILLE      CLEAR     75  66  73 SE7       29.90R
GRAND RAPIDS     N/A     75  63  64 SE6       29.92R
CRANE LAKE     CLEAR     75  64  69 S1        29.94R
COOK           CLEAR     73  64  73 CALM      29.93S
WALKER         FAIR      76  66  70 SE6       29.89R
$$
MNZ012-019>021-037-030100-
   Northeast Minnesota

CITY           SKY/WX    TMP DP  RH WIND       PRES   REMARKS
DULUTH         CLEAR     69  63  81 E6        29.94F
6HR MIN TEMP:  66; 6HR MAX TEMP:  75;

ELY            CLEAR     73  63  68 SE3       29.95S
HIBBING        CLEAR     74  66  76 E9        29.93R
EVELETH        CLEAR     72  63  73 E5        29.95S
DULUTH HARBOR  CLEAR     63  61  94 NE3       29.94S
TWO HARBORS    CLEAR     70  64  83 E3        29.93S
SILVER BAY     CLEAR     68  63  83 NE5       29.94S
GRAND MARAIS     N/A     62  52  69 NE3       29.94F
G MARAIS ARPRT PTCLDY    66  57  72 CALM      30.00S
$$
MNZ029>031-032-039>041-046>048-054>057-064-030100-
   West Central Minnesota

CITY           SKY/WX    TMP DP  RH WIND       PRES   REMARKS
FERGUS FALLS   PTCLDY    81  68  65 SE14      29.80S
WHEATON        PTCLDY    79  70  73 SE17      29.81S
MORRIS         PTCLDY    81  72  74 SE14      29.81F
ALEXANDRIA     PTCLDY    76  69  79 SE10      29.88R
ELBOW LAKE     FAIR      78  70  76 SE13      29.83S
WADENA         PTCLDY    77  66  69 SE10      29.86S
GLENWOOD       PTCLDY    75  70  83 E10       29.87S
APPLETON       MOCLDY    81  72  74 E12       29.81S
BENSON         PTCLDY    81  70  69 SE6       29.83S
ORTONVILLE     MOCLDY    82  72  69 SE12G18   29.80S
MADISON        PTCLDY    82  73  74 E10       29.81R
WILLMAR        FAIR      79  73  83 E8        29.86S
$$
MNZ033>034-036-042>043-049>051-058-059-030100-
   Central Minnesota

CITY           SKY/WX    TMP DP  RH WIND       PRES   REMARKS
ST CLOUD       CLEAR     74  69  85 E8        29.88S
6HR MIN TEMP:  74; 6HR MAX TEMP:  78;

SAUK CENTRE    MOCLDY    74  69  83 SE8       29.88R
PAYNESVILLE    CLEAR     76  70  81 NE6       29.87S
AITKIN         CLEAR     73  64  73 E7        29.90S
PINE RIVER     CLEAR     73  66  78 SE12      29.92F
BRAINERD       CLEAR     72  65  78 E7        29.90S
STAPLES        CLEAR     75  66  73 SE6       29.87F
LONG PRAIRIE   FAIR      73  68  83 E6        29.88S
LITTLE FALLS   CLEAR     73  64  73 E7        29.89S
LITCHFIELD     CLEAR     77  73  88 E6        29.87R
BUFFALO        CLEAR     75  68  78 NE6       29.88S
MAPLE LAKE     CLEAR     75  70  85 E5        29.88S
$$
MNZ037-044-045-052-053-030100-
   East Central Minnesota

CITY           SKY/WX    TMP DP  RH WIND       PRES   REMARKS
PRINCETON      CLOUDY    73  70  88 E8        29.89F
MORA           CLOUDY    70  64  83 E3        29.92S
CAMBRIDGE      PTCLDY    75  64  69 CALM      29.88S
RUSH CITY      CLOUDY    72  67  84 E3        29.91S
MOOSE LAKE     PTCLDY    72  64  78 NE3       29.91S
HINCKLEY       CLOUDY    73  68  83 E5        29.91S
CLOQUET        CLEAR     70  63  78 E5        29.94S
MCGREGOR       CLEAR     72  64  78 SE3       29.92S
$$
MNZ071>073-080-081-089-090-097-098-030100-
   Southwest Minnesota

CITY           SKY/WX    TMP DP  RH WIND       PRES   REMARKS
MONTEVIDEO     MOCLDY    81  73  78 SE9       29.84R
GRANITE FALLS  MOCLDY    81  74  79 E7        29.84R
CANBY          PTCLDY    83  75  77 SE8       29.82S HX  90
MARSHALL       PTCLDY    82  72  69 SE8       29.84R
REDWOOD FALLS  MOCLDY    83  74  74 E6        29.82S
OLIVIA         PTCLDY    77  70  78 E8        29.84S
PIPESTONE      MOCLDY    82  73  74 SE6       29.84S
WINDOM         PTCLDY    82  72  69 CALM      29.85F
WORTHINGTON    PTCLDY    81  72  74 S7        29.85S
JACKSON        PTCLDY    81  73  78 SE5       29.87R
TRACY          MOCLDY    83  76  81 SE5       29.84S HX  91
SLAYTON        MOCLDY    80  75  86 CALM      29.86S
$$
MNZ065>067-074>077-082>085-091>093-030100-
   South Central Minnesota

CITY           SKY/WX    TMP DP  RH WIND       PRES   REMARKS
MANKATO        CLEAR     81  73  78 SE5       29.85S
NEW ULM        PTCLDY    81  73  78 SE5       29.84S
ST JAMES       PTCLDY    82  75  78 SE5       29.85S
FAIRMONT       PTCLDY    82  70  65 S7        29.86S
GLENCOE        CLEAR     80  75  83 E7        29.85S
FARIBAULT      CLEAR     81  73  78 CALM      29.87R
OWATONNA       CLEAR     81  72  74 S5        29.87S
WASECA         CLEAR     79  72  78 SE3       29.88S
ALBERT LEA     CLEAR     82  72  69 S3        29.88R
$$
MNZ078>079-086>088-094>096-030100-
   Southeast Minnesota

CITY           SKY/WX    TMP DP  RH WIND       PRES   REMARKS
ROCHESTER      CLEAR     78  72  81 S8        29.89S
6HR MIN TEMP:  78; 6HR MAX TEMP:  83;

RED WING       CLEAR     79  70  73 E5        29.85S
STANTON        CLEAR     82  73  72 CALM      29.84S
DODGE CENTER   CLEAR     79  72  78 S3        29.89S
WINONA         CLEAR     81  70  69 CALM      29.87S
AUSTIN         CLEAR     82  73  74 S3        29.88S
PRESTON        PTCLDY    78  71  77 S5        29.90F
$$
ABBREVIATIONS USED IN REMARKS
   TC - TEMPERATURES IN CELSIUS
  WCI - WIND CHILL INDEX
   HX - HEAT INDEX
  VSB - VISIBILITY
$$



USA.gov is the U.S. government's official web portal to all federal, state and local government web resources and services.